TimeCDT,TemperatureF,Dew PointF,Humidity,Sea Level PressureIn,VisibilityMPH,Wind Direction,Wind SpeedMPH,Gust SpeedMPH,PrecipitationIn,Events,Conditions,WindDirDegrees,DateUTC
12:54 AM,57.0,48.9,74,29.98,10.0,South,6.9,-,N/A,,Partly Cloudy,180,2011-10-11 05:54:00
1:54 AM,59.0,50.0,72,29.99,10.0,South,4.6,-,N/A,,Overcast,190,2011-10-11 06:54:00
2:54 AM,59.0,50.0,72,29.97,10.0,South,3.5,-,N/A,,Overcast,180,2011-10-11 07:54:00
3:54 AM,57.0,50.0,77,29.97,10.0,South,5.8,-,N/A,,Overcast,170,2011-10-11 08:54:00
4:54 AM,55.9,48.9,77,29.97,10.0,Calm,Calm,-,N/A,,Scattered Clouds,0,2011-10-11 09:54:00
5:54 AM,57.0,50.0,77,29.98,10.0,SSE,3.5,-,N/A,,Overcast,160,2011-10-11 10:54:00
6:54 AM,57.0,51.1,81,29.99,10.0,South,5.8,-,N/A,,Overcast,180,2011-10-11 11:54:00
10:54 AM,62.1,54.0,75,29.98,10.0,South,6.9,-,0.00,,Mostly Cloudy,170,2011-10-11 15:54:00
11:54 AM,62.1,55.0,78,29.98,10.0,South,6.9,-,0.00,Rain,Light Rain,190,2011-10-11 16:54:00
12:54 PM,63.0,55.9,78,29.96,10.0,South,6.9,-,0.00,,Overcast,170,2011-10-11 17:54:00
1:54 PM,66.0,57.0,73,29.94,10.0,South,6.9,-,N/A,,Mostly Cloudy,170,2011-10-11 18:54:00
3:54 PM,66.0,57.9,75,29.91,10.0,SSE,8.1,-,N/A,,Partly Cloudy,160,2011-10-11 20:54:00
4:54 PM,68.0,57.9,70,29.89,10.0,SSE,8.1,-,N/A,,Clear,150,2011-10-11 21:54:00
5:54 PM,66.0,57.9,75,29.89,10.0,SSE,6.9,-,N/A,,Partly Cloudy,150,2011-10-11 22:54:00
6:54 PM,63.0,57.0,81,29.90,10.0,SE,3.5,-,N/A,,Clear,140,2011-10-11 23:54:00
7:54 PM,59.0,55.9,90,29.90,10.0,Calm,Calm,-,N/A,,Clear,0,2011-10-12 00:54:00
8:54 PM,57.0,54.0,89,29.91,6.0,SE,3.5,-,N/A,,Clear,140,2011-10-12 01:54:00
9:54 PM,55.9,54.0,93,29.91,5.0,Calm,Calm,-,N/A,,Clear,0,2011-10-12 02:54:00
10:40 PM,55.4,53.6,94,29.90,1.8,Calm,Calm,-,N/A,,Clear,0,2011-10-12 03:40:00
10:54 PM,54.0,53.1,97,29.90,2.5,Calm,Calm,-,N/A,,Clear,0,2011-10-12 03:54:00
11:00 PM,53.6,53.6,100,29.90,1.0,ESE,3.5,-,N/A,,Clear,120,2011-10-12 04:00:00
11:08 PM,53.6,53.6,100,29.90,0.8,Calm,Calm,-,N/A,,Clear,0,2011-10-12 04:08:00
11:24 PM,53.6,51.8,94,29.90,1.2,Calm,Calm,-,N/A,,Clear,0,2011-10-12 04:24:00
11:40 PM,53.6,51.8,94,29.90,0.8,ESE,3.5,-,N/A,,Clear,120,2011-10-12 04:40:00
11:47 PM,53.6,51.8,94,29.90,1.2,ESE,3.5,-,N/A,,Clear,120,2011-10-12 04:47:00
11:54 PM,53.1,51.1,93,29.91,2.5,SE,3.5,-,N/A,,Clear,130,2011-10-12 04:54:00